Weather Roundup
Issued by NWS

Home | Current Version | Previous Version | Text Only | Print | Product List | Glossary On
Versions: 1 2 3 4 5 6 7 8 9 10 11 12 13 14 15 16 17 18 19 20 21 22 23 24 25 26 27 28 29 30 31 32 33 34 35 36 37 38 39 40 41 42 43 44 45 46 47 48 49 50
147
NZUS93 KARX 101659
HRRWXR

CURRENT HOURLY OBSERVATIONS ACROSS
MUCH OF THE UPPER MISSISSIPPI VALLEY
NATIONAL WEATHER SERVICE LA CROSSE WI
1100 AM CST SAT DEC 10 2016


...SOUTHEAST MINNESOTA...


CITY           SKY/WX    TMP DP  RH WIND       PRES   REMARKS
ROCHESTER      CLOUDY     7   1  76 E3        30.41F
ROCHESTER/MAYO CLOUDY    10   3  74 SE3       30.42F
WINONA           N/A     12   7  79 CALM      30.48F
AUSTIN         LGT SNOW   9   3  78 SE5       30.41F WCI   0
ALBERT LEA     LGT SNOW  12   9  85 E6        30.39F WCI   3
DODGE CENTER   CLOUDY     7   0  72 CALM      30.40F
PRESTON        CLOUDY     8   1  73 CALM      30.42F
OWATONNA       CLOUDY     9   1  72 E3        30.41F
FARIBAULT      NOT AVBL
$$

...ELSEWHERE IN MINNESOTA...


CITY           SKY/WX    TMP DP  RH WIND       PRES   REMARKS
MINNEAPOLIS    CLOUDY     8   0  69 CALM      30.45F
INTNL FALLS    SUNNY     -4  -8  83 CALM      30.39F
DULUTH         CLOUDY     2  -5  72 W3        30.37F
RED WING       CLOUDY    10   0  61 CALM      30.46F
REDWOOD FALLS  CLOUDY     6  -1  73 SE6       30.40F WCI  -4
MANKATO        FLURRIES   7   2  80 SE6       30.42F WCI  -3
WORTHINGTON    LGT SNOW   9   5  84 E12       30.32F FOG     WCI  -6
FAIRMONT       LGT SNOW   9   5  84 E8        30.38F FOG     WCI  -3
$$

...SOUTHWEST WISCONSIN...


CITY           SKY/WX    TMP DP  RH WIND       PRES   REMARKS
LA CROSSE      CLOUDY    14   6  70 SW3       30.49F
PRAIRIE DU CHI CLOUDY    16   7  66 CALM      30.50F
BOSCOBEL       CLOUDY    18   9  68 S3        30.49F
LONE ROCK      NOT AVBL
PLATTEVILLE    CLOUDY    18  15  86 CALM      30.47F
FORT MC COY    CLOUDY    13   7  77 CALM      30.47F
CAMP DOUGLAS   PTSUNNY   14   7  73 CALM      30.45F
MAUSTON-NEW LI SUNNY     14   6  70 W3        30.45F
VIROQUA        FAIR      10   5  79 CALM      30.43F
WIS DELLS      SUNNY     15   7  71 W5        30.45F WCI   7
$$

...ELSEWHERE IN WISCONSIN...


CITY           SKY/WX    TMP DP  RH WIND       PRES   REMARKS
MILWAUKEE      PTSUNNY   23  10  57 W9        30.47F WCI  13
MADISON        PTSUNNY   17   6  62 NW7       30.46F WCI   8
GREEN BAY      CLOUDY    20   6  55 W10       30.43F WCI   9
EAU CLAIRE     CLOUDY    11   2  67 CALM      30.44F
BLACK RVR FLS  FAIR      13   4  68 SW3       30.46F
MEDFORD        CLOUDY     9   0  67 NW7       30.38F WCI  -2
WAUSAU         CLOUDY    10   0  63 NW9       30.39F WCI  -3
WIS RAPIDS     MOSUNNY   13   4  67 NW6       30.43F WCI   4
MARSHFIELD     MOSUNNY   12   1  61 NW5       30.39F WCI   4
RICE LAKE      CLOUDY    10   3  72 CALM      30.43F
$$

...NORTHEAST IOWA...


CITY           SKY/WX    TMP DP  RH WIND       PRES   REMARKS
WATERLOO       LGT SNOW  20  15  81 E7        30.44F WCI  11
DUBUQUE        CLOUDY    18  14  84 S5        30.45F WCI  11
DECORAH        CLOUDY    12   7  79 S3        30.43F
MASON CITY     LGT SNOW  13   9  84 E8        30.41F FOG     WCI   2
CHARLES CITY   LGT SNOW  14  10  85 E5        30.43F WCI   6
OELWEIN        LGT SNOW  18  16  93 E5        30.44F WCI  11
$$

...ELSEWHERE IN IOWA...


CITY           SKY/WX    TMP DP  RH WIND       PRES   REMARKS
DES MOINES     SNOW      23  20  88 SE9       30.40F VSB 1/2 WCI  13
IOWA CITY      CLOUDY    25  15  66 SE6       30.49F WCI  18
FORT DODGE     CLOUDY    19  14  79 E12       30.37F WCI   7
MARSHALLTOWN   LGT SNOW  21  15  78 SE9       30.41F WCI  11
CEDAR RAPIDS   CLOUDY    22  14  71 SE6       30.45F WCI  14
$$

...NORTHERN ILLINOIS...


CITY           SKY/WX    TMP DP  RH WIND       PRES   REMARKS
CHICAGO-OHARE  PTSUNNY   22  13  68 W10       30.49F WCI  11
CHICAGO-MIDWAY PTSUNNY   24  13  62 W9        30.51F WCI  14
MOLINE         CLOUDY    25  12  58 VRB3      30.49F
ROCKFORD       CLOUDY    21  13  71 SW5       30.51F WCI  15
PEORIA         CLOUDY    25  13  60 S5        30.53F WCI  19
$$

NOTE: "FAIR" INDICATES FEW OR NO CLOUDS BELOW 12,000 FEET WITH NO
SIGNIFICANT WEATHER AND/OR OBSTRUCTIONS TO VISIBILITY. WIND
SPEEDS ARE IN MILES-PER-HOUR.




USA.gov is the U.S. government's official web portal to all federal, state and local government web resources and services.